Flag for Azerbaijan Weather past 2 weeks in Ganja, Azerbaijan

Now
70 °F

Partly cloudy.


Feels Like: 70 °F
Forecast: 68 / 87 °F
Wind: 16 mph from Northwest

Location: Gyanca Airport

Current Time: Jul 31, 2014 at 4:19:47 AM

Latest Report: Jul 31, 2014 at 4:00 AM


Visibility: N/A

Pressure: 29.98 "Hg

Humidity: 60%

Dew point: 55 °F

Location of GanjaLocation

Historic Weather in Ganja — Graph

°F

Ganja temperature yesterday

Maximum temperature yesterday: 86 °F (at 3:00 PM)
Minimum temperature yesterday: 64 °F (at 6:30 AM)
Average temperature yesterday: 76 °F

Past Weeks' High & Low Weather Summary

 TemperatureHumidityPressure
High99 °F (Jul 27, 3:00 PM)65% (Jul 18, 6:00 AM)29.98 "Hg (Jul 18, 6:00 AM)
Low64 °F (Jul 30, 6:30 AM)11% (Jul 18, 5:00 PM)29.56 "Hg (Jul 19, 6:00 PM)
Average83 °F35%29.80 "Hg
* Reported Jul 16 3:00 AM — Jul 31 3:00 AM, Ganja, Weather by CustomWeather, © 2014

Note: Actual official high and low records may vary slightly from our data, if they occured in-between our weather recording intervals... More about our weather records

Advertising

Ganja weather history for previous 24 hours

 ConditionsComfort  
Time TempWeatherWind HumidityBarometerVisibility
3:00 AM
Jul 31
72 °FPartly cloudy.14 mph50%29.98 "HgN/A
2:30 AM72 °FPartly cloudy.14 mph53%29.98 "HgN/A
2:00 AM72 °FSprinkles. Partly cloudy.16 mph53%29.98 "HgN/A
1:30 AM75 °FThundershowers. Partly cloudy.14 mph41%29.98 "HgN/A
1:00 AM77 °FThundershowers. Partly cloudy.14 mph34%29.95 "HgN/A
12:30 AM77 °FThundershowers. Partly cloudy.10 mph30%29.95 "HgN/A
12:00 AM77 °FPassing clouds.7 mph30%29.95 "HgN/A
11:30 PM
Jul 30
77 °FPassing clouds.12 mph30%29.89 "HgN/A
11:00 PM75 °FPartly sunny.9 mph34%29.89 "HgN/A
10:30 PM75 °FPartly sunny.6 mph34%29.89 "HgN/A
10:00 PM77 °FPartly sunny.8 mph32%29.89 "HgN/A
9:30 PM79 °FScattered clouds.7 mph30%29.89 "HgN/A
9:00 PM82 °FPassing clouds.8 mph25%29.89 "HgN/A
8:30 PM82 °FPassing clouds.10 mph23%29.89 "HgN/A
8:00 PM84 °FPassing clouds.14 mph22%29.86 "HgN/A
7:30 PM86 °FPassing clouds.14 mph20%29.86 "HgN/A
7:00 PM86 °FPassing clouds.15 mph20%29.86 "HgN/A
6:30 PM86 °FPassing clouds.15 mph20%29.89 "HgN/A
6:00 PM86 °FPassing clouds.14 mph20%29.89 "HgN/A
5:30 PM86 °FPassing clouds.15 mph20%29.89 "HgN/A
5:00 PM86 °FPassing clouds.14 mph22%29.89 "HgN/A
4:30 PM84 °FPassing clouds.14 mph22%29.89 "HgN/A
4:00 PM86 °FPassing clouds.14 mph22%29.92 "HgN/A
3:30 PM86 °FPassing clouds.16 mph20%29.92 "HgN/A
3:00 PM86 °FPassing clouds.16 mph19%29.92 "HgN/A
2:30 PM84 °FPassing clouds.17 mph23%29.92 "HgN/A
2:00 PM84 °FPassing clouds.15 mph23%29.92 "HgN/A
1:30 PM84 °FPassing clouds.14 mph22%29.95 "HgN/A
1:00 PM82 °FPassing clouds.13 mph25%29.95 "HgN/A
12:30 PM79 °FPassing clouds.5 mph32%29.98 "HgN/A
12:00 PM79 °FPassing clouds.3 mph32%29.98 "HgN/A
11:30 AM77 °FPassing clouds.3 mph39%29.98 "HgN/A
11:00 AM75 °FPassing clouds.5 mph39%29.98 "HgN/A
10:30 AM75 °FPassing clouds.8 mph36%29.98 "HgN/A
10:00 AM73 °FPassing clouds.9 mph41%29.98 "HgN/A
9:30 AM72 °FPassing clouds.7 mph47%29.98 "HgN/A
9:00 AM70 °FPassing clouds.6 mph46%29.98 "HgN/A
8:30 AM68 °FPassing clouds.7 mph53%29.95 "HgN/A
8:00 AM66 °FPassing clouds.6 mph56%29.95 "HgN/A
7:30 AM64 °FPassing clouds.8 mph60%29.95 "HgN/A
7:00 AM64 °FPassing clouds.7 mph60%29.95 "HgN/A
6:30 AM64 °FPassing clouds.5 mph56%29.95 "HgN/A
6:00 AM66 °FPassing clouds.5 mph52%29.95 "HgN/A
5:30 AM66 °FPassing clouds.5 mph56%29.95 "HgN/A
5:00 AM66 °FPassing clouds.5 mph56%29.95 "HgN/A
4:30 AM68 °FPassing clouds.7 mph53%29.92 "HgN/A
4:00 AM66 °FPassing clouds.8 mph56%29.92 "HgN/A
Weather by CustomWeather, © 2014

See weather overviewHow to use our weather pages